SCP
-0 -0 -0 0 0 0 0 0 0 0 0 0 0 0 0 0 0 0 0 0 0 0 0 0 0 0 0 0 0 0 0 0 0 0 0 0 0 0 0 0 0 0 0
-0 -0 -0 0 0 0 0 0 0 0 0 0 0 0 0 0 0 0 0 0 0 0 0 0 0 0 0 0 0 0 0 0 0 0 0 0 0 0 0 0 0 0 0
-0 0 0 0 0 0 0 0 0 0 0 0 0 0 0 0 0 0 0 0 0 0 0 0 0 0 0 0 0 0 0 0 0 0 0 0 0 0 0 0 0 0 0
-0 0 0 0 0 0 0 0 0 0 0 0 0 0 0 0 0 0 0 0 0 0 0 0 0 0 0 0 0 0 0 0 0 0 0 0 0 0 0 0 0 0 0
0 0 0 0 0 0 0 0 0 0 0 0 0 0 0 0 0 0 0 0 0 0 0 0 0 0 0 0 0 0 0 0 0 0 0 0 0 0 0 0 0 0 0
0 0 0 0 0 0 0 0 0 0 0 0 0 0 0 0 0 0 0 0 0 0 0 0 0 0 0 0 0 0 0 0 0 0 0 0 0 0 0 0 0 0 0
0 0 0 0 0 0 0 0 0 0 0 0 0 0 0 0 0 0 0 0 0 0 0 0 0 0 0 0 0 0 0 0 0 0 0 0 0 0 0 0 0 0 0
0 0 0 0 0 0 0 0 0 0 0 0 0 0 0 0 0 0 0 0 0 0 0 0 0 0 0 0 0 0 0 0 0 0 0 0 0 0 0 0 0 0 0
0 0 0 0 0 0 0 0 0 0 0 0 0 0 0 0 0 0 0 0 0 0 0 0 0 0 0 0 0 0 0 0 0 0 0 0 0 0 0 0 0 0 0
0 0 0 0 0 0 0 0 0 0 0 0 0 0 0 0 0 0 0 0 0 0 0 0 0 0 0 0 0 0 0 -0 0 0 0 0 0 0 0 0 0 0 0
0 0 0 0 0 0 0 0 0 0 0 0 0 0 0 0 0 0 0 0 0 0 0 0 0 0 0 0 0 0 0 0 0 0 0 0 0 0 0 0 0 0 0
0 0 0 0 0 0 0 0 0 0 0 0 0 0 0 0 0 0 0 0 0 0 0 0 0 0 0 0 0 0 0 0 0 0 0 0 0 0 0 0 0 0 0
0 0 0 0 0 0 0 0 0 0 0 0 0 0 0 0 0 0 0 0 0 0 0 0 0 0 0 0 0 0 0 0 0 0 0 0 0 0 0 0 0 0 0
0 0 0 0 0 0 0 0 0 0 0 0 0 0 0 0 0 0 0 0 0 0 0 0 0 0 0 0 0 0 0 0 0 0 0 0 0 0 0 0 0 0 0
0 0 0 0 0 0 0 0 0 0 0 0 0 0 0 0 0 0 0 0 0 0 0 0 0 0 0 0 0 0 0 0 0 0 0 0 0 0 0 0 0 0 0
0 0 0 0 0 0 0 0 0 0 0 0 0 0 0 0 0 0 0 0 0 0 0 0 0 0 0 0 0 0 0 0 0 0 0 0 0 0 0 0 0 0 0
0 0 0 0 0 0 0 0 0 0 0 0 0 0 0 0 0 0 0 0 0 0 0 0 0 0 0 0 0 0 0 0 0 0 0 0 0 0 0 0 0 0 0
0 0 0 0 0 0 0 0 0 0 0 0 0 0 0 0 0 0 0 0 0 0 0 0 0 0 0 0 0 0 0 0 0 0 0 0 0 0 0 0 0 0 0
0 0 0 0 0 0 0 0 0 0 0 0 0 0 0 0 0 0 0 0 0 0 0 0 0 0 0 0 0 0 0 0 0 0 0 0 0 0 0 0 0 0 0
0 0 0 0 0 0 0 0 0 0 0 0 0 0 0 0 0 0 0 0 0 0 0 0 0 0 0 0 0 0 0 0 0 0 0 0 0 0 0 0 0 0 0
0 0 0 0 0 0 0 0 0 0 0 0 0 0 0 0 0 0 0 0 0 0 0 0 0 0 0 0 0 0 0 0 0 0 0 0 0 0 0 0 0 0 0
0 0 0 0 0 0 0 0 0 0 0 0 0 0 0 0 0 0 0 0 0 0 0 0 0 0 0 0 0 0 0 0 0 0 0 0 0 0 0 0 0 0 0
0 0 0 0 0 0 0 0 0 0 0 0 0 0 0 0 0 0 0 0 0 0 0 0 0 0 0 0 0 0 0 0 0 0 0 0 0 0 0 0 0 0 0
0 0 0 0 0 0 0 0 0 0 0 0 0 0 0 0 0 0 0 0 0 0 0 0 0 0 0 0 0 0 0 0 0 0 0 0 0 0 0 0 0 0 0
0 0 0 0 0 0 0 0 0 0 0 0 0 0 0 0 0 0 0 0 0 0 0 0 0 0 0 0 0 0 0 0 0 0 0 0 0 0 0 0 0 0 0
0 0 0 0 0 0 0 0 0 0 0 0 0 0 0 0 0 0 0 0 0 0 0 0 0 0 0 0 0 0 0 0 0 0 0 0 0 0 0 0 0 0 0
Wind_Speed_500mb
29 22 16 11 5 2 7 10 9 14 19 22 22 23 24 25 26 27 28 27 27 27 28 29 29 31 30 29 28 30 31 36 28 28 26 23 20 17 12 14 18 14 30
36 25 20 11 4 6 9 9 13 19 21 19 20 22 24 25 26 27 25 24 26 27 27 28 30 31 32 33 33 32 33 37 35 27 21 20 25 12 11 14 12 18 19
33 24 18 9 6 8 9 13 16 18 16 16 19 21 25 26 28 29 30 29 27 27 27 28 30 30 32 31 32 36 38 37 37 31 21 18 13 1 9 15 18 21 16
29 26 16 10 9 9 11 14 16 14 12 16 20 23 27 29 31 32 32 31 30 29 29 31 31 31 31 30 30 30 31 31 30 28 23 17 11 17 8 14 19 20 26
30 25 16 11 11 11 12 14 13 12 14 18 22 26 29 31 31 31 31 30 30 30 31 33 35 38 37 35 35 36 35 30 27 26 22 19 8 25 16 20 19 25 21
31 25 16 15 13 12 12 11 10 11 16 21 24 27 30 31 31 31 30 33 31 32 34 37 41 40 38 38 37 38 37 34 30 25 22 21 16 23 18 21 27 37 29
32 24 19 16 13 11 11 7 8 14 18 21 25 29 30 31 31 31 33 36 35 36 39 41 43 42 40 37 36 36 35 33 29 24 23 20 20 22 20 21 26 32 37
31 27 20 16 13 10 7 5 11 15 20 24 27 30 31 32 34 33 34 37 38 39 40 41 42 41 39 37 37 35 33 30 26 23 23 19 31 22 24 24 23 29 32
30 26 22 19 14 10 5 8 15 19 22 25 28 31 33 33 34 36 35 35 35 37 39 42 41 40 40 39 39 37 34 29 24 22 21 17 30 24 26 18 23 25 27
31 27 24 24 19 10 3 10 15 18 22 25 28 31 32 35 36 35 33 37 37 38 39 39 40 40 39 37 37 37 35 32 24 22 18 23 26 26 22 22 21 24 24
33 29 26 21 18 15 4 9 14 19 21 26 29 32 35 30 31 30 36 36 36 36 38 40 41 41 39 39 38 34 31 22 22 19 17 28 21 26 20 18 20 23 25
37 32 26 23 17 16 7 6 11 15 18 22 29 31 30 31 33 33 36 37 38 41 45 47 47 42 36 31 27 32 24 25 19 17 16 22 22 21 19 19 18 22 24
37 32 28 24 18 14 5 4 7 14 20 25 29 28 30 26 26 24 22 23 25 35 31 33 31 30 34 33 30 27 27 23 19 17 22 21 12 9 14 18 18 20 23
38 31 28 22 18 12 4 1 9 13 16 17 25 29 25 20 21 22 23 24 27 30 32 32 31 33 31 31 30 29 25 21 19 16 21 27 23 23 24 20 20 25 25
35 31 27 24 17 10 5 6 8 11 11 17 17 27 24 18 21 22 24 25 27 30 31 32 32 31 31 30 29 27 24 22 21 18 17 32 28 29 29 26 21 24 26
33 29 28 23 15 8 6 6 9 10 16 13 14 25 28 22 26 23 24 26 28 31 32 31 32 31 30 30 30 28 25 21 20 19 18 20 33 30 32 31 31 28 28
31 30 27 21 12 6 5 6 8 9 10 12 13 26 27 26 26 26 24 26 29 31 32 31 31 31 31 29 30 28 26 22 19 19 18 20 22 29 35 32 32 35 36
31 29 24 16 10 5 4 5 4 12 13 9 15 15 25 28 32 22 24 27 33 29 29 31 33 32 32 31 31 29 28 25 22 18 17 20 23 24 27 35 34 35 39
29 27 21 14 8 3 5 6 13 16 8 15 13 16 24 22 27 24 24 28 31 27 28 30 31 32 34 33 35 33 29 28 24 22 23 27 26 28 30 31 37 34 41
28 24 19 13 6 0 6 13 14 10 9 12 13 15 19 19 24 25 24 28 28 25 27 29 32 32 30 34 39 33 33 23 21 22 23 23 24 28 28 28 27 22 38
27 23 15 8 4 6 7 10 7 7 9 12 14 17 18 22 23 25 24 25 26 25 27 32 32 34 31 35 35 39 29 21 20 11 27 24 25 27 29 27 23 22 20
26 21 14 9 7 7 7 9 6 7 7 13 12 15 19 23 26 23 25 24 26 26 29 31 32 35 31 35 35 38 24 26 7 32 23 24 25 26 28 26 26 22 21
25 21 17 10 7 7 12 17 17 19 16 17 18 17 21 24 24 24 24 24 24 27 29 31 32 35 39 33 29 21 18 16 43 2 26 16 31 29 30 28 27 23 22
26 22 15 11 10 14 19 17 15 12 12 12 14 18 18 23 22 23 24 23 25 27 30 29 31 34 33 32 28 14 21 26 19 29 14 31 27 31 30 27 29 24 23
25 18 13 10 12 21 20 18 13 14 13 14 16 19 22 22 22 24 24 24 27 29 31 32 35 34 31 30 27 25 22 19 24 28 45 36 34 31 31 30 29 25 24
24 19 12 11 20 19 19 22 20 17 15 15 20 21 23 22 22 23 25 25 29 33 32 33 36 34 32 27 26 23 25 25 25 29 38 42 42 37 34 33 25 23 26
Wind_Direction_500mb
151 190 208 200 184 101 74 65 55 55 47 36 26 21 17 14 11 7 9 10 19 15 11 12 8 359 358 356 350 340 336 327 334 328 323 312 305 289 288 276 269 271 262
160 173 192 181 152 97 84 80 65 53 45 38 28 19 14 11 8 7 10 15 16 14 14 8 360 357 349 346 342 338 335 330 334 337 335 340 347 321 346 283 267 254 250
160 179 176 160 134 107 93 80 68 58 48 31 23 15 12 11 5 9 8 12 8 13 12 4 1 353 346 341 334 332 329 330 335 340 342 347 352 120 307 301 282 265 263
152 144 156 148 135 116 104 85 72 61 43 25 19 13 8 5 3 4 1 1 1 5 9 2 0 353 348 339 332 326 326 328 334 335 347 339 349 295 305 292 279 278 256
144 144 160 144 137 131 114 92 71 48 32 23 16 11 4 2 2 1 356 357 358 2 360 352 348 344 342 339 335 330 330 332 334 345 332 333 330 298 295 293 306 275 264
141 149 154 149 149 134 117 93 62 37 25 17 9 5 3 0 1 359 355 356 359 353 350 346 344 343 341 337 333 331 330 333 334 337 333 326 331 284 323 326 309 293 280
145 154 153 151 155 142 130 95 48 23 16 9 3 5 2 358 360 359 356 354 354 350 348 344 344 342 341 337 333 329 330 331 332 332 327 330 312 292 312 326 327 304 286
156 150 151 154 161 150 132 48 24 11 7 6 3 0 0 359 359 2 356 350 347 343 343 340 341 341 338 335 332 332 332 331 333 328 325 329 293 298 323 326 322 326 314
162 157 149 151 160 149 131 27 11 4 3 2 0 360 360 3 3 360 353 348 347 343 343 341 341 341 342 341 339 339 338 338 338 327 330 326 291 327 331 322 320 324 334
162 162 155 150 145 140 107 18 8 4 4 360 360 0 3 6 4 358 358 349 349 345 343 344 344 345 346 345 343 343 343 347 334 332 327 298 308 331 332 326 317 328 330
165 166 165 166 158 159 136 358 5 3 359 360 358 2 11 6 6 2 355 352 350 350 349 350 349 347 348 347 343 344 353 336 336 328 329 300 317 335 333 321 321 325 323
172 170 171 171 171 164 189 335 347 352 356 356 3 7 6 4 3 2 358 356 356 359 358 353 350 355 354 347 340 347 338 336 338 329 319 318 349 346 339 326 325 320 325
175 173 174 183 181 173 220 332 358 348 350 357 2 5 3 11 8 6 5 360 359 352 354 353 349 348 345 347 340 336 334 337 325 322 297 307 300 340 349 351 338 331 325
176 176 174 183 187 190 209 174 326 343 360 4 354 8 11 9 9 8 4 0 358 353 349 348 344 342 341 340 338 333 327 326 315 311 295 296 290 278 276 328 319 321 322
176 175 175 182 187 195 212 290 318 351 359 355 2 359 6 8 5 2 359 358 354 350 347 345 340 340 338 335 335 330 322 316 309 305 297 297 286 290 290 289 314 316 318
176 174 176 176 183 194 235 294 331 344 348 1 1 350 355 2 359 358 354 353 348 346 345 342 337 339 335 332 329 324 319 309 299 299 292 297 306 286 286 287 292 307 317
172 169 172 177 183 206 269 321 328 330 344 353 353 346 351 354 353 0 350 347 342 342 342 341 339 337 334 333 328 325 319 305 295 295 298 295 297 313 303 288 288 291 296
166 162 170 173 184 218 283 317 316 321 333 356 345 346 346 345 349 354 346 341 339 341 340 342 340 339 335 333 328 323 315 304 289 289 298 302 297 297 304 302 289 288 291
161 160 161 167 172 237 328 322 315 320 338 331 345 337 335 346 347 353 342 338 345 342 340 341 340 337 334 330 327 324 317 302 283 288 295 298 298 303 299 297 306 297 287
154 150 155 160 184 81 347 336 325 335 352 346 350 335 347 343 346 347 342 339 348 342 341 339 339 335 335 329 331 326 316 298 291 285 296 302 301 305 309 303 302 299 298
147 142 148 163 130 35 38 26 353 326 345 349 354 346 352 344 345 344 347 342 346 342 341 341 339 338 339 334 337 325 319 303 298 275 307 295 298 306 308 305 308 292 290
142 137 142 121 88 60 38 344 325 325 343 345 342 346 348 346 346 352 348 347 344 344 342 342 341 339 334 334 332 327 327 316 313 296 292 302 312 309 309 306 303 294 289
136 133 120 120 87 54 16 14 351 353 355 353 327 337 335 345 347 347 345 347 346 344 341 341 337 338 330 334 328 319 330 327 319 251 309 307 311 312 308 305 302 291 285
125 120 125 109 72 22 17 22 7 351 358 323 339 335 347 337 344 346 345 344 344 343 338 335 334 331 326 324 316 302 294 289 296 311 297 315 314 311 306 303 301 287 281
123 132 119 89 29 24 36 25 12 6 353 343 346 344 343 339 340 343 344 341 339 340 334 332 332 327 325 315 309 307 303 295 288 276 299 309 310 307 304 300 294 287 277
123 123 108 43 30 42 27 16 5 8 0 353 350 352 344 338 338 332 340 335 335 333 331 331 328 324 320 307 301 296 294 293 295 292 293 300 305 309 304 301 289 282 278
Wind_Speed_850mb
29 22 16 11 5 2 7 10 9 14 19 22 22 23 24 25 26 27 28 27 27 27 28 29 29 31 30 29 28 30 31 36 28 28 26 23 20 17 12 14 18 14 30
36 25 20 11 4 6 9 9 13 19 21 19 20 22 24 25 26 27 25 24 26 27 27 28 30 31 32 33 33 32 33 37 35 27 21 20 25 12 11 14 12 18 19
33 24 18 9 6 8 9 13 16 18 16 16 19 21 25 26 28 29 30 29 27 27 27 28 30 30 32 31 32 36 38 37 37 31 21 18 13 1 9 15 18 21 16
29 26 16 10 9 9 11 14 16 14 12 16 20 23 27 29 31 32 32 31 30 29 29 31 31 31 31 30 30 30 31 31 30 28 23 17 11 17 8 14 19 20 26
30 25 16 11 11 11 12 14 13 12 14 18 22 26 29 31 31 31 31 30 30 30 31 33 35 38 37 35 35 36 35 30 27 26 22 19 8 25 16 20 19 25 21
31 25 16 15 13 12 12 11 10 11 16 21 24 27 30 31 31 31 30 33 31 32 34 37 41 40 38 38 37 38 37 34 30 25 22 21 16 23 18 21 27 37 29
32 24 19 16 13 11 11 7 8 14 18 21 25 29 30 31 31 31 33 36 35 36 39 41 43 42 40 37 36 36 35 33 29 24 23 20 20 22 20 21 26 32 37
31 27 20 16 13 10 7 5 11 15 20 24 27 30 31 32 34 33 34 37 38 39 40 41 42 41 39 37 37 35 33 30 26 23 23 19 31 22 24 24 23 29 32
30 26 22 19 14 10 5 8 15 19 22 25 28 31 33 33 34 36 35 35 35 37 39 42 41 40 40 39 39 37 34 29 24 22 21 17 30 24 26 18 23 25 27
31 27 24 24 19 10 3 10 15 18 22 25 28 31 32 35 36 35 33 37 37 38 39 39 40 40 39 37 37 37 35 32 24 22 18 23 26 26 22 22 21 24 24
33 29 26 21 18 15 4 9 14 19 21 26 29 32 35 30 31 30 36 36 36 36 38 40 41 41 39 39 38 34 31 22 22 19 17 28 21 26 20 18 20 23 25
37 32 26 23 17 16 7 6 11 15 18 22 29 31 30 31 33 33 36 37 38 41 45 47 47 42 36 31 27 32 24 25 19 17 16 22 22 21 19 19 18 22 24
37 32 28 24 18 14 5 4 7 14 20 25 29 28 30 26 26 24 22 23 25 35 31 33 31 30 34 33 30 27 27 23 19 17 22 21 12 9 14 18 18 20 23
38 31 28 22 18 12 4 1 9 13 16 17 25 29 25 20 21 22 23 24 27 30 32 32 31 33 31 31 30 29 25 21 19 16 21 27 23 23 24 20 20 25 25
35 31 27 24 17 10 5 6 8 11 11 17 17 27 24 18 21 22 24 25 27 30 31 32 32 31 31 30 29 27 24 22 21 18 17 32 28 29 29 26 21 24 26
33 29 28 23 15 8 6 6 9 10 16 13 14 25 28 22 26 23 24 26 28 31 32 31 32 31 30 30 30 28 25 21 20 19 18 20 33 30 32 31 31 28 28
31 30 27 21 12 6 5 6 8 9 10 12 13 26 27 26 26 26 24 26 29 31 32 31 31 31 31 29 30 28 26 22 19 19 18 20 22 29 35 32 32 35 36
31 29 24 16 10 5 4 5 4 12 13 9 15 15 25 28 32 22 24 27 33 29 29 31 33 32 32 31 31 29 28 25 22 18 17 20 23 24 27 35 34 35 39
29 27 21 14 8 3 5 6 13 16 8 15 13 16 24 22 27 24 24 28 31 27 28 30 31 32 34 33 35 33 29 28 24 22 23 27 26 28 30 31 37 34 41
28 24 19 13 6 0 6 13 14 10 9 12 13 15 19 19 24 25 24 28 28 25 27 29 32 32 30 34 39 33 33 23 21 22 23 23 24 28 28 28 27 22 38
27 23 15 8 4 6 7 10 7 7 9 12 14 17 18 22 23 25 24 25 26 25 27 32 32 34 31 35 35 39 29 21 20 11 27 24 25 27 29 27 23 22 20
26 21 14 9 7 7 7 9 6 7 7 13 12 15 19 23 26 23 25 24 26 26 29 31 32 35 31 35 35 38 24 26 7 32 23 24 25 26 28 26 26 22 21
25 21 17 10 7 7 12 17 17 19 16 17 18 17 21 24 24 24 24 24 24 27 29 31 32 35 39 33 29 21 18 16 43 2 26 16 31 29 30 28 27 23 22
26 22 15 11 10 14 19 17 15 12 12 12 14 18 18 23 22 23 24 23 25 27 30 29 31 34 33 32 28 14 21 26 19 29 14 31 27 31 30 27 29 24 23
25 18 13 10 12 21 20 18 13 14 13 14 16 19 22 22 22 24 24 24 27 29 31 32 35 34 31 30 27 25 22 19 24 28 45 36 34 31 31 30 29 25 24
24 19 12 11 20 19 19 22 20 17 15 15 20 21 23 22 22 23 25 25 29 33 32 33 36 34 32 27 26 23 25 25 25 29 38 42 42 37 34 33 25 23 26
Wind_Direction_850mb
151 190 208 200 184 101 74 65 55 55 47 36 26 21 17 14 11 7 9 10 19 15 11 12 8 359 358 356 350 340 336 327 334 328 323 312 305 289 288 276 269 271 262
160 173 192 181 152 97 84 80 65 53 45 38 28 19 14 11 8 7 10 15 16 14 14 8 360 357 349 346 342 338 335 330 334 337 335 340 347 321 346 283 267 254 250
160 179 176 160 134 107 93 80 68 58 48 31 23 15 12 11 5 9 8 12 8 13 12 4 1 353 346 341 334 332 329 330 335 340 342 347 352 120 307 301 282 265 263
152 144 156 148 135 116 104 85 72 61 43 25 19 13 8 5 3 4 1 1 1 5 9 2 0 353 348 339 332 326 326 328 334 335 347 339 349 295 305 292 279 278 256
144 144 160 144 137 131 114 92 71 48 32 23 16 11 4 2 2 1 356 357 358 2 360 352 348 344 342 339 335 330 330 332 334 345 332 333 330 298 295 293 306 275 264
141 149 154 149 149 134 117 93 62 37 25 17 9 5 3 0 1 359 355 356 359 353 350 346 344 343 341 337 333 331 330 333 334 337 333 326 331 284 323 326 309 293 280
145 154 153 151 155 142 130 95 48 23 16 9 3 5 2 358 360 359 356 354 354 350 348 344 344 342 341 337 333 329 330 331 332 332 327 330 312 292 312 326 327 304 286
156 150 151 154 161 150 132 48 24 11 7 6 3 0 0 359 359 2 356 350 347 343 343 340 341 341 338 335 332 332 332 331 333 328 325 329 293 298 323 326 322 326 314
162 157 149 151 160 149 131 27 11 4 3 2 0 360 360 3 3 360 353 348 347 343 343 341 341 341 342 341 339 339 338 338 338 327 330 326 291 327 331 322 320 324 334
162 162 155 150 145 140 107 18 8 4 4 360 360 0 3 6 4 358 358 349 349 345 343 344 344 345 346 345 343 343 343 347 334 332 327 298 308 331 332 326 317 328 330
165 166 165 166 158 159 136 358 5 3 359 360 358 2 11 6 6 2 355 352 350 350 349 350 349 347 348 347 343 344 353 336 336 328 329 300 317 335 333 321 321 325 323
172 170 171 171 171 164 189 335 347 352 356 356 3 7 6 4 3 2 358 356 356 359 358 353 350 355 354 347 340 347 338 336 338 329 319 318 349 346 339 326 325 320 325
175 173 174 183 181 173 220 332 358 348 350 357 2 5 3 11 8 6 5 360 359 352 354 353 349 348 345 347 340 336 334 337 325 322 297 307 300 340 349 351 338 331 325
176 176 174 183 187 190 209 174 326 343 360 4 354 8 11 9 9 8 4 0 358 353 349 348 344 342 341 340 338 333 327 326 315 311 295 296 290 278 276 328 319 321 322
176 175 175 182 187 195 212 290 318 351 359 355 2 359 6 8 5 2 359 358 354 350 347 345 340 340 338 335 335 330 322 316 309 305 297 297 286 290 290 289 314 316 318
176 174 176 176 183 194 235 294 331 344 348 1 1 350 355 2 359 358 354 353 348 346 345 342 337 339 335 332 329 324 319 309 299 299 292 297 306 286 286 287 292 307 317
172 169 172 177 183 206 269 321 328 330 344 353 353 346 351 354 353 0 350 347 342 342 342 341 339 337 334 333 328 325 319 305 295 295 298 295 297 313 303 288 288 291 296
166 162 170 173 184 218 283 317 316 321 333 356 345 346 346 345 349 354 346 341 339 341 340 342 340 339 335 333 328 323 315 304 289 289 298 302 297 297 304 302 289 288 291
161 160 161 167 172 237 328 322 315 320 338 331 345 337 335 346 347 353 342 338 345 342 340 341 340 337 334 330 327 324 317 302 283 288 295 298 298 303 299 297 306 297 287
154 150 155 160 184 81 347 336 325 335 352 346 350 335 347 343 346 347 342 339 348 342 341 339 339 335 335 329 331 326 316 298 291 285 296 302 301 305 309 303 302 299 298
147 142 148 163 130 35 38 26 353 326 345 349 354 346 352 344 345 344 347 342 346 342 341 341 339 338 339 334 337 325 319 303 298 275 307 295 298 306 308 305 308 292 290
142 137 142 121 88 60 38 344 325 325 343 345 342 346 348 346 346 352 348 347 344 344 342 342 341 339 334 334 332 327 327 316 313 296 292 302 312 309 309 306 303 294 289
136 133 120 120 87 54 16 14 351 353 355 353 327 337 335 345 347 347 345 347 346 344 341 341 337 338 330 334 328 319 330 327 319 251 309 307 311 312 308 305 302 291 285
125 120 125 109 72 22 17 22 7 351 358 323 339 335 347 337 344 346 345 344 344 343 338 335 334 331 326 324 316 302 294 289 296 311 297 315 314 311 306 303 301 287 281
123 132 119 89 29 24 36 25 12 6 353 343 346 344 343 339 340 343 344 341 339 340 334 332 332 327 325 315 309 307 303 295 288 276 299 309 310 307 304 300 294 287 277
123 123 108 43 30 42 27 16 5 8 0 353 350 352 344 338 338 332 340 335 335 333 331 331 328 324 320 307 301 296 294 293 295 292 293 300 305 309 304 301 289 282 278